COSMOS 2460 (732)

Last updated on Thu Dec 11 2025 00:03:19 GMT+0000 (Coordinated Universal Time)

1 36402U 10007C 25343.80668569 -.00000049 00000+0 00000+0 0 9990 2 36402 65.5316 320.8726 0002788 272.0350 265.8280 2.13105924122693
UTC large
Height (km)
Speed (km/s)
/
Latitude / Longitude
Inclination (degrees)
Orbital Period (minutes)
Azimuth
Elevation
Range (km)
Doppler Factor

Next 0 passes for location: London (51.5072 / 0.1276)

Sorry there are no passes over London.